Location: Hac?musa Deresi
(39.1694°N, 32.2508°E)
Time: 23:04:44
(UTC+00:00)

Cosmos 2285 Rocket - Pass Details

Date: 22 April 2026
Orbit: 971 x 997 km, 74.0° (Epoch: 9 May)

Event Time Altitude Azimuth Distance (km) Brightness Sun altitude
Rises 18:24:17 0° 199° (SSW) 3,686 6.9 -19.8°
Reaches altitude 10° 18:26:50 10° 200° (SSW) 2,738 6.2 -20.1°
Maximum altitude 18:33:11 83° 288° (WNW) 995 4.0 -21.1°
Drops below altitude 10° 18:39:33 10° 17° (NNE) 2,735 6.6 -22.1°
Sets 18:42:06 0° 19° (NNE) 3,683 7.3 -22.5°
